Date String (YYYY-MM-DD hh:mm:ss) UTC,Instrument flags,absolute air pressure of the measurement (hPa),sample flow rate (lpm),inlet stack bypass flow (lpm),air temperature of the measurement (°C),ambient temperature measured by the external sensor (°C),aerosol sample conditioner tube jacket temperature (°C),OPC LED temperature (°C),internal box temperature (°C),relative humidity of the measurement (%),span deviation,mass concentration of particles derived from Lorenz-Mie calculation of OPC scattering (μg/m³),mass concentration of particles derived from Lorenz-Mie calculation of OPC scattering (μg/m³),mass concentration of particles derived from Lorenz-Mie calculation of OPC scattering (μg/m³)
DateTimeUTC,F1_M11,P_M11,Q1_M11,Q2_M11,T1_M11,T2_M11,T3_M11,T4_M11,T5_M11,U1_M11,ZSPAN_M11,X2_M11,X0_M11,X1_M11
2024-03-07 13:00:00,SystemResetWarning,0822.0,4.99,000.00,018.7,017.9,000.0,027.3,020.4,24.7,0000.0,0004.33,0012.40,0003.32
2024-03-07 13:01:00,SystemResetWarning,0822.0,5.00,000.00,018.7,017.9,000.0,027.3,020.4,24.8,0000.0,0004.34,0012.83,0003.33
2024-03-07 13:02:00,SystemResetWarning,0822.1,5.00,000.00,018.7,017.9,000.0,027.3,020.4,24.8,0000.0,0004.37,0012.34,0003.36
2024-03-07 13:03:00,SystemResetWarning,0822.0,4.99,000.00,018.7,017.9,000.0,027.3,020.4,24.8,0000.0,0004.43,0011.47,0003.38
2024-03-07 13:04:00,SystemResetWarning,0822.0,5.00,000.00,018.7,017.9,000.0,027.3,020.4,24.9,0000.0,0004.44,0011.25,0003.41
2024-03-07 13:05:00,SystemResetWarning,0822.1,5.01,000.00,018.7,017.9,000.0,027.3,020.4,24.9,0000.0,0004.47,0010.64,0003.43
2024-03-07 13:06:00,SystemResetWarning,0822.0,5.00,000.00,018.7,017.9,000.0,027.3,020.4,24.9,0000.0,0004.50,0010.72,0003.45
2024-03-07 13:07:00,SystemResetWarning,0822.1,5.00,000.00,018.6,017.9,000.0,027.3,020.4,24.9,0000.0,0004.58,0011.28,0003.47
2024-03-07 13:08:00,SystemResetWarning,0822.1,5.00,000.00,018.6,017.9,000.0,027.2,020.4,24.9,0000.0,0004.57,0012.13,0003.49
2024-03-07 13:09:00,SystemResetWarning,0822.1,5.00,000.00,018.6,017.9,000.0,027.2,020.4,24.9,0000.0,0004.56,0012.58,0003.50
2024-03-07 13:10:00,SystemResetWarning,0822.1,5.00,000.00,018.6,017.9,000.0,027.2,020.4,25.0,0000.6,0004.54,0012.61,0003.52
2024-03-07 13:11:00,SystemResetWarning,0822.1,5.00,000.00,018.6,017.9,000.0,027.2,020.4,25.0,0001.2,0004.53,0013.11,0003.53
2024-03-07 13:12:00,SystemResetWarning,0822.2,5.00,000.00,018.6,017.9,000.0,027.2,020.4,25.0,0001.2,0004.53,0013.35,0003.54
2024-03-07 13:13:00,SystemResetWarning,0822.2,5.00,000.00,018.6,017.9,000.0,027.2,020.4,25.0,0001.6,0004.52,0013.46,0003.54
2024-03-07 13:14:00,SystemResetWarning,0822.2,5.00,000.00,018.6,017.9,000.0,027.2,020.3,25.1,0000.2,0004.52,0013.21,0003.55
2024-03-07 13:15:00,SystemResetWarning,0822.2,5.00,000.00,018.6,017.8,000.0,027.2,020.4,25.1,0000.0,0004.57,0012.99,0003.55
2024-03-07 13:16:00,SystemResetWarning,0822.2,5.00,000.00,018.6,017.8,000.0,027.2,020.3,25.4,0000.4,0004.59,0012.95,0003.55
2024-03-07 13:17:00,SystemResetWarning,0822.2,5.00,000.00,018.6,017.8,000.0,027.2,020.3,26.1,0000.0,0004.57,0013.47,0003.56
2024-03-07 13:18:00,SystemResetWarning,0822.2,5.00,000.00,018.6,017.8,000.0,027.2,020.3,25.6,0000.0,0004.57,0013.11,0003.57
2024-03-07 13:19:00,SystemResetWarning,0822.3,5.00,000.00,018.6,017.8,000.0,027.2,020.3,25.3,0000.0,0004.57,0012.41,0003.58
2024-03-07 13:20:00,SystemResetWarning,0822.2,5.00,000.00,018.6,017.8,000.0,027.2,020.3,25.3,0000.0,0004.57,0012.00,0003.58
2024-03-07 13:21:00,SystemResetWarning,0822.2,5.00,000.00,018.6,017.8,000.0,027.2,020.3,25.3,0000.0,0004.59,0013.34,0003.60
2024-03-07 13:22:00,SystemResetWarning,0822.3,5.01,000.00,018.6,017.8,000.0,027.2,020.3,25.3,0000.0,0004.58,0013.59,0003.59
2024-03-07 13:23:00,SystemResetWarning,0822.3,5.01,000.00,018.6,017.8,000.0,027.2,020.3,25.3,0000.0,0004.65,0013.25,0003.61
2024-03-07 13:24:00,SystemResetWarning,0822.3,5.01,000.00,018.6,017.8,000.0,027.2,020.3,25.3,0000.0,0004.66,0013.20,0003.62
2024-03-07 13:25:00,SystemResetWarning,0822.4,5.00,000.00,018.5,017.8,000.0,027.2,020.3,25.3,0000.0,0004.67,0013.99,0003.63
2024-03-07 13:26:00,SystemResetWarning,0822.4,4.99,000.00,018.5,017.8,000.0,027.2,020.3,25.3,0000.0,0004.60,0014.26,0003.61
2024-03-07 13:27:00,SystemResetWarning,0822.4,5.00,000.00,018.5,017.8,000.0,027.2,020.3,25.3,0000.0,0004.59,0014.84,0003.63
2024-03-07 13:28:00,SystemResetWarning,0822.4,5.00,000.00,018.5,017.8,000.0,027.2,020.3,25.3,0000.0,0004.68,0015.31,0003.63
2024-03-07 13:29:00,SystemResetWarning,0822.4,5.00,000.00,018.5,017.8,000.0,027.1,020.3,25.3,0000.0,0004.69,0015.39,0003.63
2024-03-07 13:30:00,SystemResetWarning,0822.4,5.00,000.00,018.5,017.8,000.0,027.1,020.3,25.2,0000.0,0004.70,0015.69,0003.64
2024-03-07 13:31:00,SystemResetWarning,0822.4,5.00,000.00,018.5,017.8,000.0,027.1,020.3,25.2,0000.0,0004.74,0016.24,0003.65
2024-03-07 13:32:00,SystemResetWarning,0822.4,5.00,000.00,018.5,017.8,000.0,027.1,020.3,25.2,0000.0,0004.77,0015.64,0003.64
2024-03-07 13:33:00,SystemResetWarning,0822.4,4.99,000.00,018.5,017.7,000.0,027.1,020.3,25.2,0000.0,0004.81,0015.11,0003.65
2024-03-07 13:34:00,SystemResetWarning,0822.4,5.00,000.00,018.5,017.7,000.0,027.1,020.2,25.2,0000.0,0004.79,0015.61,0003.65
2024-03-07 13:35:00,SystemResetWarning,0822.4,5.01,000.00,018.5,017.7,000.0,027.1,020.2,25.2,0000.0,0004.85,0015.60,0003.66
2024-03-07 13:36:00,SystemResetWarning,0822.4,5.00,000.00,018.5,017.7,000.0,027.1,020.2,25.2,0000.0,0004.86,0014.74,0003.67
2024-03-07 13:37:00,SystemResetWarning,0822.4,4.99,000.00,018.5,017.7,000.0,027.1,020.2,25.2,0000.0,0004.91,0014.34,0003.70
2024-03-07 13:38:00,SystemResetWarning,0822.4,5.00,000.00,018.5,017.7,000.0,027.1,020.2,25.2,0000.0,0004.93,0013.93,0003.71
2024-03-07 13:39:00,SystemResetWarning,0822.4,5.00,000.00,018.5,017.7,000.0,027.1,020.2,25.2,0000.0,0004.93,0013.50,0003.71
2024-03-07 13:40:00,SystemResetWarning,0822.4,4.99,000.00,018.5,017.7,000.0,027.1,020.2,25.2,0000.0,0004.94,0013.40,0003.71
2024-03-07 13:41:00,SystemResetWarning,0822.5,5.00,000.00,018.5,017.7,000.0,027.1,020.2,25.1,0000.0,0004.94,0013.03,0003.71
2024-03-07 13:42:00,SystemResetWarning,0822.6,5.00,000.00,018.5,017.7,000.0,027.1,020.2,25.1,0001.5,0004.92,0012.76,0003.71
2024-03-07 13:43:00,SystemResetWarning,0822.5,5.00,000.00,018.5,017.7,000.0,027.1,020.2,25.2,0001.0,0004.93,0012.33,0003.72
2024-03-07 13:44:00,SystemResetWarning,0822.6,5.00,000.00,018.5,017.7,000.0,027.1,020.2,25.1,0000.0,0004.91,0011.83,0003.72
2024-03-07 13:45:00,SystemResetWarning,0822.9,5.00,000.00,018.5,017.7,000.0,027.1,020.2,25.2,0000.0,0004.90,0011.85,0003.71
2024-03-07 13:46:00,SystemResetWarning,0822.9,5.00,000.00,018.5,017.7,000.0,027.1,020.2,25.2,0000.0,0004.90,0012.05,0003.71
2024-03-07 13:47:00,SystemResetWarning,0823.1,5.00,000.00,018.4,017.7,000.0,027.1,020.2,25.2,0000.0,0004.85,0012.29,0003.70
2024-03-07 13:48:00,SystemResetWarning,0823.0,5.00,000.00,018.4,017.7,000.0,027.1,020.2,25.2,0000.0,0004.85,0012.59,0003.69
2024-03-07 13:49:00,SystemResetWarning,0822.9,5.00,000.00,018.4,017.7,000.0,027.0,020.2,25.2,0000.0,0004.84,0013.34,0003.68
2024-03-07 13:50:00,SystemResetWarning,0822.5,5.00,000.00,018.4,017.7,000.0,027.0,020.2,25.2,0000.0,0004.80,0013.44,0003.68
2024-03-07 13:51:00,SystemResetWarning,0822.6,5.01,000.00,018.4,017.7,000.0,027.0,020.2,25.2,0000.0,0004.81,0014.46,0003.69
2024-03-07 13:52:00,SystemResetWarning,0822.7,5.00,000.00,018.4,017.7,000.0,027.0,020.2,25.2,0000.0,0004.82,0014.95,0003.70
2024-03-07 13:53:00,SystemResetWarning,0822.6,5.00,000.00,018.4,017.7,000.0,027.0,020.2,25.2,0000.0,0004.85,0016.13,0003.72
2024-03-07 13:54:00,SystemResetWarning,0822.6,4.99,000.00,018.4,017.7,000.0,027.0,020.2,25.2,0000.0,0004.85,0015.81,0003.72
2024-03-07 13:55:00,SystemResetWarning,0822.7,4.99,000.00,018.4,017.7,000.0,027.0,020.2,25.2,0000.0,0004.85,0015.98,0003.74
2024-03-07 13:56:00,SystemResetWarning,0822.7,5.01,000.00,018.4,017.7,000.0,027.0,020.2,25.2,-000.1,0004.97,0017.18,0003.75
2024-03-07 13:57:00,SystemResetWarning,0822.7,5.01,000.00,018.4,017.7,000.0,027.0,020.2,25.1,-000.1,0004.96,0017.11,0003.76
2024-03-07 13:58:00,SystemResetWarning,0822.8,5.00,000.00,018.4,017.7,000.0,027.0,020.2,25.1,-000.0,0005.00,0017.56,0003.78
2024-03-07 13:59:00,SystemResetWarning,0822.8,5.00,000.00,018.4,017.7,000.0,027.0,020.2,25.1,0000.0,0005.01,0017.44,0003.78
